Enid Vance AFB, OK

10:26 AM CDT on June 26, 2017 (GMT -0500)
Vance Air Force Base

Weather History for KEND - March, 2013

Change the Weather History Date:

Friday, March 22, 2013

  Actual Average Record
Temperature  
Mean Temperature 42 °F -  
Max Temperature 48 °F 60 °F 86 °F (2011)
Min Temperature 35 °F 39 °F 19 °F (2002)
Degree Days  
Heating Degree Days 24    
Moisture  
Dew Point 36 °F    
Average Humidity 90    
Maximum Humidity 100    
Minimum Humidity 62    
Precipitation  
Precipitation 0.07 in - - ()
Sea Level Pressure  
Sea Level Pressure 29.87 in    
Wind  
Wind Speed 12 mph (NNE)    
Max Wind Speed 16 mph    
Max Gust Speed 22 mph    
Visibility 8 miles    
Events Rain , Thunderstorm    
Averages and records for this station are not official NWS values.
T = Trace of Precipitation, MM = Missing Value Source: NWS Daily Summary

Daily Weather History Graph

Daily Weather History Graph

Search for Another Location

Airport or City:

Trip Planner

Search our weather history database for the weather conditions in past years. The results will help you decide how hot, cold, wet, or windy it might be!

Date:

Astronomy

Mar. 22, 2013 Rise Set
Actual Time 7:31 AM CDT 7:45 PM CDT
Civil Twilight 7:06 AM CDT 8:11 PM CDT
Nautical Twilight 6:36 AM CDT 8:41 PM CDT
Astronomical Twilight 6:05 AM CDT 9:11 PM CDT
Moon 3:20 PM CDT (3/22) 4:25 AM CDT (3/22)
Length of Visible Light 13h 04m
Length of Day
12h 13m
Waxing Gibbous, 77% of the Moon is Illuminated
Mar 22
Waxing Gibbous
Mar 27
Full
Apr 2
Last Quarter
Apr 10
New
Apr 18
First Quarter

Hourly Weather History & Observations

Time (CDT) Temp. Windchill Dew Point Humidity Pressure Visibility Wind Dir Wind Speed Gust Speed Precip Events Conditions
12:58 AM 38.8 °F 30.0 °F 34.5 °F 84% 29.74 in 10.0 mi ENE 16.1 mph - N/A   Overcast
1:48 AM 39.2 °F 32.0 °F 35.6 °F 87% 29.77 in 10.0 mi NE 11.5 mph - N/A   Overcast
1:58 AM 38.8 °F 31.2 °F 35.1 °F 86% 29.77 in 10.0 mi NE 12.7 mph - N/A   Overcast
2:38 AM 37.4 °F 29.3 °F 37.4 °F 100% 29.82 in 10.0 mi North 12.7 mph - N/A   Overcast
2:53 AM 37.4 °F 28.9 °F 37.4 °F 100% 29.82 in 7.0 mi North 13.8 mph - N/A Rain Rain
2:55 AM 37.4 °F 29.8 °F 37.4 °F 100% 29.82 in 6.0 mi NNE 11.5 mph - N/A Rain , Thunderstorm Heavy Thunderstorms and Rain
2:58 AM 37.4 °F 28.9 °F 37.4 °F 100% 29.82 in 6.0 mi NNE 13.8 mph - 0.04 in Rain , Thunderstorm Thunderstorms and Rain
3:55 AM 35.6 °F 26.2 °F 35.6 °F 100% 29.86 in 9.0 mi North 15.0 mph - 0.03 in   Overcast
4:55 AM 35.6 °F 27.1 °F 35.6 °F 100% 29.85 in 7.0 mi North 12.7 mph 21.9 mph N/A   Overcast
5:55 AM 35.6 °F 25.9 °F 35.6 °F 100% 29.88 in 7.0 mi NNE 16.1 mph - N/A   Overcast
6:55 AM 35.6 °F 27.1 °F 35.6 °F 100% 29.88 in 6.0 mi NNE 12.7 mph - N/A   Overcast
7:55 AM 35.6 °F 27.5 °F 35.6 °F 100% 29.91 in 5.0 mi North 11.5 mph - N/A   Overcast
8:55 AM 35.6 °F 27.5 °F 35.6 °F 100% 29.90 in 4.0 mi North 11.5 mph - N/A   Light Drizzle
9:39 AM 35.6 °F 27.1 °F 35.6 °F 100% 29.88 in 5.0 mi North 12.7 mph - N/A   Overcast
9:55 AM 35.6 °F 28.0 °F 35.6 °F 100% 29.92 in 6.0 mi North 10.4 mph - N/A   Overcast
10:55 AM 37.4 °F 30.3 °F 37.4 °F 100% 29.96 in 6.0 mi NNW 10.4 mph - N/A   Overcast
11:55 AM 37.4 °F 31.4 °F 37.4 °F 100% 29.95 in 6.0 mi North 8.1 mph - N/A   Overcast
12:55 PM 39.2 °F 32.0 °F 37.4 °F 93% 29.94 in 7.0 mi North 11.5 mph - N/A   Overcast
1:55 PM 41.0 °F 34.3 °F 37.4 °F 87% 29.93 in 7.0 mi North 11.5 mph - N/A   Overcast
2:55 PM 42.8 °F 37.0 °F 35.6 °F 76% 29.89 in 7.0 mi North 10.4 mph - N/A   Overcast
3:08 PM 42.8 °F 37.0 °F 35.6 °F 76% 29.89 in 7.0 mi North 10.4 mph - N/A   Overcast
3:55 PM 44.6 °F 39.7 °F 35.6 °F 71% 29.88 in 7.0 mi NNE 9.2 mph - N/A   Overcast
4:30 PM 46.4 °F 41.5 °F 35.6 °F 66% 29.85 in 10.0 mi NNE 10.4 mph - N/A   Mostly Cloudy
4:55 PM 46.4 °F 41.5 °F 35.6 °F 66% 29.86 in 10.0 mi NNE 10.4 mph - N/A   Mostly Cloudy
5:55 PM 48.2 °F - 35.6 °F 62% 29.86 in 10.0 mi NNE 8.1 mph - N/A   Mostly Cloudy
6:58 PM 45.9 °F 40.8 °F 36.3 °F 69% 29.86 in 10.0 mi NE 10.4 mph - N/A   Mostly Cloudy
7:58 PM 43.0 °F 39.5 °F 36.7 °F 78% 29.87 in 10.0 mi NE 5.8 mph - N/A   Partly Cloudy
8:58 PM 40.8 °F 36.2 °F 37.0 °F 86% 29.88 in 10.0 mi NE 6.9 mph - N/A   Partly Cloudy
9:58 PM 38.1 °F 34.6 °F 36.3 °F 93% 29.91 in 10.0 mi NE 4.6 mph - N/A   Clear
10:58 PM 37.9 °F 35.5 °F 37.8 °F 99% 29.94 in 10.0 mi NE 3.5 mph - N/A   Scattered Clouds
11:03 PM 39.2 °F 35.9 °F 39.2 °F 100% 29.91 in 10.0 mi NE 4.6 mph - N/A   Mostly Cloudy
11:38 PM 37.4 °F 32.1 °F 37.4 °F 100% 29.89 in 10.0 mi NNE 6.9 mph - N/A   Scattered Clouds
11:58 PM 37.8 °F 29.8 °F 37.6 °F 99% 29.92 in 10.0 mi NE 12.7 mph - N/A   Clear